User: anonymous   Login
Location: Starry Hill Observatory
(46.8582°N, 122.3590°W)
Time: 07:54:37
(UTC-07:00)
Language:

Cosmos 1300 Rocket - Orbit

View from above orbital plane
View from above orbital plane
View from above satellite
View from above satellite

Ground track
Ground track

The orbit data is extracted from the following two-line orbital elements,

1 12786U 81082B   16126.71565499  .00000162  00000-0  16227-4 0  9996
2 12786  82.4891 351.7261 0018215 155.4135 204.7953 14.84612268874353
Epoch (UTC): 05 May 2016 17:10:32
Eccentricity: 0.0018215
inclination: 82.4891°
perigee height: 602 km
apogee height: 627 km
right ascension of ascending node: 351.7261°
argument of perigee: 155.4135°
revolutions per day: 14.84612268
mean anomaly at epoch: 204.7953°
orbit number at epoch: 87435

The dashed part of the orbit path shows where the satellite is in the earth's shadow,  

DLR